Salem, OR

6:00 PM PST on November 21, 2019 (GMT -0800)
McNary

Weather History for KSLE - October, 2019

Change the Weather History Date:

Thursday, October 17, 2019

  Actual Average Record
Temperature  
Mean Temperature 54 °F 53 °F  
Max Temperature 57 °F 63 °F 84 °F (1936)
Min Temperature 50 °F 42 °F 28 °F (1902)
Degree Days  
Heating Degree Days 11 12  
Month to date heating degree days 246 164  
Since 1 July heating degree days 371 329  
Cooling Degree Days 0 0  
Month to date cooling degree days 0 0  
Year to date cooling degree days 360 289  
Growing Degree Days 4 (Base 50)    
Moisture  
Dew Point 48 °F    
Average Humidity 85    
Maximum Humidity 96    
Minimum Humidity 70    
Precipitation  
Precipitation 0.30 in 0.10 in 2.20 in (1898)
Month to date precipitation 1.37 1.25  
Year to date precipitation 24.06 24.53  
Sea Level Pressure  
Sea Level Pressure 29.82 in    
Wind  
Wind Speed 11 mph ()    
Max Wind Speed 22 mph    
Max Gust Speed 29 mph    
Visibility 10.0 miles    
Events Rain    
T = Trace of Precipitation, MM = Missing Value Source: Averaged Metar Reports

Daily Weather History Graph

Daily Weather History Graph

Search for Another Location

Airport or City:

Astronomy

Oct. 17, 2019 Rise Set
Actual Time 7:30 AM PDT 6:23 PM PDT
Civil Twilight 7:00 AM PDT 6:53 PM PDT
Nautical Twilight 6:26 AM PDT 7:27 PM PDT
Astronomical Twilight 5:52 AM PDT 8:01 PM PDT
Moon 8:50 PM PDT (10/17) 11:15 AM PDT (10/17)
Length of Visible Light 11h 53m
Length of Day
10h 53m
Waning Gibbous, 86% of the Moon is Illuminated
Oct 17
Waning Gibbous
Oct 21
Last Quarter
Oct 27
New
Nov 4
First Quarter
Nov 12
Full

Hourly Weather History & Observations

Time (PDT) Temp. Dew Point Humidity Pressure Visibility Wind Dir Wind Speed Gust Speed Precip Events Conditions
12:56 AM 52.0 °F 50.0 °F 93% 29.78 in 10.0 mi South 10.4 mph - N/A   Partly Cloudy
1:56 AM 51.1 °F 48.9 °F 92% 29.79 in 10.0 mi South 8.1 mph - N/A   Clear
2:56 AM 51.1 °F 48.0 °F 89% 29.80 in 10.0 mi South 8.1 mph - N/A   Clear
3:56 AM 51.1 °F 46.9 °F 86% 29.79 in 10.0 mi South 10.4 mph - N/A   Clear
4:56 AM 50.0 °F 46.9 °F 89% 29.79 in 10.0 mi South 10.4 mph - N/A   Clear
5:56 AM 50.0 °F 46.9 °F 89% 29.79 in 10.0 mi SSE 8.1 mph - N/A   Overcast
6:56 AM 51.1 °F 48.0 °F 89% 29.79 in 10.0 mi South 13.8 mph - 0.00 in Rain Light Rain
7:56 AM 51.1 °F 48.0 °F 89% 29.78 in 10.0 mi South 12.7 mph - 0.01 in   Mostly Cloudy
8:56 AM 52.0 °F 48.0 °F 86% 29.81 in 10.0 mi South 11.5 mph 20.7 mph 0.00 in Rain Light Rain
9:56 AM 53.1 °F 48.0 °F 83% 29.82 in 10.0 mi South 12.7 mph - 0.01 in Rain Light Rain
10:56 AM 52.0 °F 48.0 °F 86% 29.83 in 10.0 mi South 17.3 mph 26.5 mph 0.02 in Rain Light Rain
11:32 AM 53.1 °F 48.0 °F 83% 29.84 in 10.0 mi South 19.6 mph 26.5 mph 0.00 in   Mostly Cloudy
11:56 AM 54.0 °F 48.0 °F 80% 29.84 in 10.0 mi South 17.3 mph 25.3 mph 0.00 in   Overcast
12:56 PM 55.0 °F 48.0 °F 77% 29.85 in 10.0 mi South 16.1 mph 25.3 mph 0.00 in Rain Light Rain
1:06 PM 55.0 °F 48.9 °F 80% 29.85 in 10.0 mi South 17.3 mph 26.5 mph 0.00 in   Overcast
1:56 PM 57.9 °F 48.9 °F 72% 29.84 in 10.0 mi South 16.1 mph - 0.00 in   Overcast
2:51 PM 57.2 °F 48.2 °F 72% 29.83 in 10.0 mi South 18.4 mph 27.6 mph N/A   Overcast
2:56 PM 57.9 °F 48.0 °F 70% 29.83 in 10.0 mi South 20.7 mph 27.6 mph 0.00 in Rain Light Rain
3:56 PM 57.0 °F 50.0 °F 77% 29.82 in 10.0 mi South 12.7 mph - 0.01 in   Overcast
4:56 PM 57.0 °F 48.9 °F 74% 29.80 in 10.0 mi South 15.0 mph - 0.00 in Rain Light Rain
5:56 PM 54.0 °F 50.0 °F 86% 29.79 in 10.0 mi South 16.1 mph - 0.03 in Rain Light Rain
6:56 PM 53.1 °F 48.9 °F 86% 29.79 in 9.0 mi South 17.3 mph 23.0 mph 0.11 in Rain Light Rain
7:47 PM 53.1 °F 50.0 °F 89% 29.83 in 10.0 mi SSW 13.8 mph 21.9 mph 0.10 in Rain Light Rain
7:56 PM 53.1 °F 50.0 °F 89% 29.83 in 10.0 mi SSW 10.4 mph - 0.10 in   Overcast
8:56 PM 52.0 °F 48.9 °F 89% 29.85 in 10.0 mi South 5.8 mph - 0.00 in   Mostly Cloudy
9:56 PM 51.1 °F 48.9 °F 92% 29.88 in 10.0 mi Calm Calm - N/A   Overcast
10:56 PM 51.1 °F 48.9 °F 92% 29.90 in 10.0 mi South 6.9 mph - 0.01 in Rain Light Rain
11:56 PM 50.0 °F 46.9 °F 89% 29.92 in 10.0 mi South 9.2 mph - 0.00 in   Scattered Clouds